Flag for Bahrain Weather past 2 weeks in Riffa, Bahrain

Now
88 °F

Clear.


Feels Like: 96 °F
Forecast: 89 / 101 °F
Wind: 7 mph from West

Location: Bahrain International Airport

Current Time: Sep 20, 2014 at 3:03:52 AM

Latest Report: Sep 20, 2014 at 2:00 AM


Visibility: 10 mi

Pressure: 29.68 "Hg

Humidity: 62%

Dew point: 73 °F

Location of RiffaLocation

Historic Weather in Riffa — Graph

°F

Riffa temperature yesterday

Maximum temperature yesterday: 99 °F (at 1:00 PM)
Minimum temperature yesterday: 88 °F (at 1:00 AM)
Average temperature yesterday: 91 °F

Past Weeks' High & Low Weather Summary

 TemperatureHumidityPressure
High104 °F (Sep 7, 2:00 PM)71% (Sep 7, 6:00 AM)29.80 "Hg (Sep 7, 6:00 AM)
Low86 °F (Sep 16, 4:00 AM)15% (Sep 16, 9:00 AM)29.47 "Hg (Sep 5, 2:00 AM)
Average95 °F47%29.63 "Hg
* Reported Sep 5 2:00 AM — Sep 20 2:00 AM, Riffa, Weather by CustomWeather, © 2014

Note: Actual official high and low records may vary slightly from our data, if they occured in-between our weather recording intervals... More about our weather records

Advertising

Riffa weather history for previous 24 hours

 ConditionsComfort  
Time TempWeatherWind HumidityBarometerVisibility
2:00 AM
Sep 20
88 °FClear.7 mph62%29.68 "Hg10 mi
1:00 AM88 °FClear.3 mph59%29.71 "Hg10 mi
12:00 AM88 °FClear.2 mph59%29.71 "Hg10 mi
11:00 PM
Sep 19
90 °FClear.3 mph59%29.74 "Hg10 mi
10:00 PM90 °FClear.6 mph59%29.74 "Hg10 mi
9:00 PM91 °FClear.5 mph52%29.77 "Hg10 mi
8:00 PM91 °FPassing clouds.6 mph52%29.74 "HgN/A
7:00 PM93 °FClear.9 mph44%29.74 "Hg10 mi
6:00 PM93 °FClear.12 mph44%29.71 "Hg10 mi
5:00 PM95 °FSunny.15 mph44%29.71 "Hg10 mi
4:00 PM95 °FSunny.17 mph47%29.71 "Hg10 mi
3:00 PM97 °FPassing clouds.17 mph47%29.71 "HgN/A
2:00 PM97 °FSunny.16 mph42%29.74 "Hg10 mi
1:00 PM99 °FSunny.16 mph35%29.74 "Hg10 mi
12:00 PM95 °FSunny.14 mph53%29.77 "Hg10 mi
11:00 AM93 °FSunny.13 mph56%29.80 "Hg10 mi
10:00 AM91 °FSunny.13 mph52%29.80 "Hg10 mi
9:00 AM91 °FSunny.14 mph52%29.80 "Hg10 mi
8:00 AM90 °FSunny.7 mph55%29.80 "Hg10 mi
7:00 AM88 °FSunny.7 mph62%29.80 "Hg10 mi
6:00 AM88 °FSunny.7 mph62%29.77 "Hg10 mi
5:00 AM88 °FClear.6 mph62%29.77 "Hg10 mi
4:00 AM88 °FClear.5 mph62%29.74 "Hg10 mi
3:00 AM88 °FClear.5 mph62%29.74 "Hg10 mi
Weather by CustomWeather, © 2014

See weather overviewHow to use our weather pages